Regional Weather Roundup
Issued by NWS Cleveland, OH

Home | Current Version | Previous Version | Text Only | Print | Product List | Glossary Off
Versions: 1 2 3 4 5 6 7 8 9 10 11 12 13 14 15 16 17 18 19 20 21 22 23 24 25 26 27 28 29 30 31 32 33 34 35 36 37 38 39 40 41 42 43 44 45 46 47 48 49 50

000
ASUS41 KCLE 291710
RWRCLE
OHIO REGIONAL WEATHER ROUNDUP
NATIONAL WEATHER SERVICE WILMINGTON, OH
1200 PM EST THU JAN 29 2015

NOTE: "FAIR" INDICATES FEW OR NO CLOUDS BELOW 12,000 FEET WITH NO
SIGNIFICANT WEATHER AND/OR OBSTRUCTIONS TO VISIBILITY.

OHZ001>008-015>018-024>027-034-035-043-044-291800-
   NORTHWEST OHIO

CITY           SKY/WX    TMP DP  RH WIND       PRES   REMARKS
DEFIANCE       CLOUDY   N/A N/A N/A MISG      29.74F
FINDLAY        CLOUDY    38  31  76 S14       29.74F
TOLEDO EXPRESS CLOUDY    38  30  73 SW7       29.73F
TOLEDO EXEC    CLOUDY    39  30  70 SW9       29.74F
LIMA           CLOUDY    41  31  67 SW18G26   29.75F
$$

OHZ009>014-019>023-028>033-038-089-291800-
   NORTHEAST OHIO

CITY           SKY/WX    TMP DP  RH WIND       PRES   REMARKS
CLE-HOPKINS    CLOUDY    34  27  75 S13       29.81F WCI  25
CLE-LAKEFRONT  CLOUDY    37  28  70 S20G32    29.77F
CUY CO. ARPT   CLOUDY    36  30  80 S17G29    29.79F
LORAIN-ELYRIA  CLOUDY    36  29  75 S16       29.78F
ASHTABULA      FLURRIES  32  20  61 S15G22    29.82F WCI  22
AKRON-CANTON   FRZ RAIN  33  28  81 S15       29.82F WCI  23
WOOSTER        CLOUDY    32  28  85 S15       29.81F WCI  22
MANSFIELD      CLOUDY    36  31  82 S18G30    29.79F
YOUNGSTOWN     FRZ RAIN  31  24  75 S12       29.83F FOG     WCI  22
$$

OHZ042-051>053-060>062-070>072-077>081-291800-
  SOUTHWEST OHIO

CITY           SKY/WX    TMP DP  RH WIND       PRES   REMARKS
CINC-COVINGTON CLOUDY    49  36  61 SW14G23   29.84S
CINC-LUNKEN    CLOUDY    49  37  63 SW18      29.85F
HAMILTON       CLOUDY    49  36  61 SW9G17    29.83F
DAYTON         CLOUDY    43  35  73 SW14      29.80S
WRIGHT-PAT AFB CLOUDY    42  34  74 S12       29.79F
DAYTON GENERAL CLOUDY    45  35  68 SW13      29.80F
WILMINGTON     PTSUNNY   44  34  67 SW22G28   29.80F
$$

OHZ036-037-039>041-045>050-054>059-063>069-073>076-082>088-291800-
  CENTRAL AND SOUTHEAST OHIO

CITY           SKY/WX    TMP DP  RH WIND       PRES   REMARKS
COLUMBUS       CLOUDY    37  30  75 S12       29.83F
OSU AIRPORT    PTSUNNY   36  31  82 S9        29.81F
BOLTON FIELD   PTSUNNY   36  34  93 SE5       29.83F
RICKENBACK AFB PTSUNNY   37  31  79 S13       29.82F
NEWARK         CLOUDY    37  31  78 S8        29.84F
MARION         CLOUDY    36  30  79 S17       29.79F
LANCASTER      PTSUNNY   39  32  76 S15       29.84F
ZANESVILLE     CLOUDY    34  29  82 S9        29.87F WCI  27
NEW PHILLY     LGT RAIN  35  29  78 S9        29.87F WCI  28
$$


USA.gov is the U.S. government's official web portal to all federal, state and local government web resources and services.